Date_Time,Julian_Date,Latitude,Longitude,Instrument_Depth,U,V,Speed,Direction
(yyyy-mm-dd hh:mn:ss UTC),(JD),(+ deg. North),(+ deg. East),(m),(cm/s),(cm/s),(cm/s),(deg True)
1984-10-11 19:30:00 UTC,2445985.312500,29.6633,-93.4786,0037,5.74,1.75,6.0000,73.0000
1984-10-11 20:00:00 UTC,2445985.333333,29.6633,-93.4786,0037,5.77,1.65,6.0000,74.0000
1984-10-11 20:30:00 UTC,2445985.354167,29.6633,-93.4786,0037,6.82,1.57,7.0000,77.0000
1984-10-11 21:00:00 UTC,2445985.375000,29.6633,-93.4786,0037,6.85,1.46,7.0000,78.0000
1984-10-11 21:30:00 UTC,2445985.395833,29.6633,-93.4786,0037,5.96,0.73,6.0000,83.0000
1984-10-11 22:00:00 UTC,2445985.416667,29.6633,-93.4786,0037,5.87,-1.25,6.0000,102.0000
1984-10-11 22:30:00 UTC,2445985.437500,29.6633,-93.4786,0037,4.60,-3.86,6.0000,130.0000
1984-10-11 23:00:00 UTC,2445985.458333,29.6633,-93.4786,0037,3.07,-6.29,7.0000,154.0000
1984-10-11 23:30:00 UTC,2445985.479167,29.6633,-93.4786,0037,3.23,-8.40,9.0000,159.0000
1984-10-12 00:00:00 UTC,2445985.500000,29.6633,-93.4786,0037,2.48,-8.65,9.0000,164.0000
1984-10-12 00:30:00 UTC,2445985.520833,29.6633,-93.4786,0037,0.00,-9.00,9.0000,180.0000
1984-10-12 01:00:00 UTC,2445985.541667,29.6633,-93.4786,0037,-1.56,-8.86,9.0000,190.0000
1984-10-12 01:30:00 UTC,2445985.562500,29.6633,-93.4786,0037,-3.23,-8.40,9.0000,201.0000
1984-10-12 02:00:00 UTC,2445985.583333,29.6633,-93.4786,0037,-6.69,-7.43,10.0000,222.0000
1984-10-12 02:30:00 UTC,2445985.604167,29.6633,-93.4786,0037,-12.36,-4.02,13.0000,252.0000
1984-10-12 03:00:00 UTC,2445985.625000,29.6633,-93.4786,0037,-15.99,0.56,16.0000,272.0000
1984-10-12 03:30:00 UTC,2445985.645833,29.6633,-93.4786,0037,-16.87,2.07,17.0000,277.0000
1984-10-12 04:00:00 UTC,2445985.666667,29.6633,-93.4786,0037,-16.94,1.48,17.0000,275.0000
1984-10-12 04:30:00 UTC,2445985.687500,29.6633,-93.4786,0037,-16.91,1.78,17.0000,276.0000
1984-10-12 05:00:00 UTC,2445985.708333,29.6633,-93.4786,0037,-16.74,2.95,17.0000,280.0000
1984-10-12 05:30:00 UTC,2445985.729167,29.6633,-93.4786,0037,-16.56,3.82,17.0000,283.0000
1984-10-12 06:00:00 UTC,2445985.750000,29.6633,-93.4786,0037,-16.79,2.66,17.0000,279.0000
1984-10-12 06:30:00 UTC,2445985.770833,29.6633,-93.4786,0037,-17.98,0.94,18.0000,273.0000
1984-10-12 07:00:00 UTC,2445985.791667,29.6633,-93.4786,0037,-18.97,0.99,19.0000,273.0000
1984-10-12 07:30:00 UTC,2445985.812500,29.6633,-93.4786,0037,-19.92,1.74,20.0000,275.0000
1984-10-12 08:00:00 UTC,2445985.833333,29.6633,-93.4786,0037,-20.88,2.20,21.0000,276.0000
1984-10-12 08:30:00 UTC,2445985.854167,29.6633,-93.4786,0037,-22.72,3.60,23.0000,279.0000
1984-10-12 09:00:00 UTC,2445985.875000,29.6633,-93.4786,0037,-25.33,5.85,26.0000,283.0000
1984-10-12 09:30:00 UTC,2445985.895833,29.6633,-93.4786,0037,-27.88,7.99,29.0000,286.0000
1984-10-12 10:00:00 UTC,2445985.916667,29.6633,-93.4786,0037,-28.53,9.27,30.0000,288.0000
1984-10-12 10:30:00 UTC,2445985.937500,29.6633,-93.4786,0037,-26.63,8.65,28.0000,288.0000
1984-10-12 11:00:00 UTC,2445985.958333,29.6633,-93.4786,0037,-23.91,7.31,25.0000,287.0000
1984-10-12 11:30:00 UTC,2445985.979167,29.6633,-93.4786,0037,-18.07,5.87,19.0000,288.0000
1984-10-12 12:00:00 UTC,2445986.000000,29.6633,-93.4786,0037,-11.68,5.70,13.0000,296.0000
1984-10-12 12:30:00 UTC,2445986.020833,29.6633,-93.4786,0037,-8.39,5.45,10.0000,303.0000
1984-10-12 13:00:00 UTC,2445986.041667,29.6633,-93.4786,0037,-6.55,4.59,8.0000,305.0000
1984-10-12 13:30:00 UTC,2445986.062500,29.6633,-93.4786,0037,-4.95,4.95,7.0000,315.0000
1984-10-12 14:00:00 UTC,2445986.083333,29.6633,-93.4786,0037,-2.82,5.30,6.0000,332.0000
1984-10-12 14:30:00 UTC,2445986.104167,29.6633,-93.4786,0037,-0.09,5.00,5.0000,359.0000
1984-10-12 15:00:00 UTC,2445986.125000,29.6633,-93.4786,0037,1.79,4.67,5.0000,21.0000
1984-10-12 15:30:00 UTC,2445986.145833,29.6633,-93.4786,0037,2.72,5.35,6.0000,27.0000
1984-10-12 16:00:00 UTC,2445986.166667,29.6633,-93.4786,0037,2.96,6.34,7.0000,25.0000
1984-10-12 16:30:00 UTC,2445986.187500,29.6633,-93.4786,0037,3.38,7.25,8.0000,25.0000
1984-10-12 17:00:00 UTC,2445986.208333,29.6633,-93.4786,0037,3.50,6.06,7.0000,30.0000
1984-10-12 17:30:00 UTC,2445986.229167,29.6633,-93.4786,0037,3.18,5.09,6.0000,32.0000
1984-10-12 18:00:00 UTC,2445986.250000,29.6633,-93.4786,0037,3.18,6.24,7.0000,27.0000
1984-10-12 18:30:00 UTC,2445986.270833,29.6633,-93.4786,0037,2.85,6.39,7.0000,24.0000
1984-10-12 19:00:00 UTC,2445986.291667,29.6633,-93.4786,0037,2.54,5.44,6.0000,25.0000
1984-10-12 19:30:00 UTC,2445986.312500,29.6633,-93.4786,0037,2.29,3.28,4.0000,35.0000
1984-10-12 20:00:00 UTC,2445986.333333,29.6633,-93.4786,0037,2.41,3.19,4.0000,37.0000
1984-10-12 20:30:00 UTC,2445986.354167,29.6633,-93.4786,0037,1.94,3.50,4.0000,29.0000
1984-10-12 21:00:00 UTC,2445986.375000,29.6633,-93.4786,0037,0.31,2.98,3.0000,6.0000
1984-10-12 21:30:00 UTC,2445986.395833,29.6633,-93.4786,0037,-7.71,4.64,9.0000,301.0000
1984-10-12 22:00:00 UTC,2445986.416667,29.6633,-93.4786,0037,-17.66,9.39,20.0000,298.0000
1984-10-12 22:30:00 UTC,2445986.437500,29.6633,-93.4786,0037,-19.42,10.33,22.0000,298.0000
1984-10-12 23:00:00 UTC,2445986.458333,29.6633,-93.4786,0037,-12.58,6.14,14.0000,296.0000
1984-10-12 23:30:00 UTC,2445986.479167,29.6633,-93.4786,0037,-4.73,1.63,5.0000,289.0000
1984-10-13 00:00:00 UTC,2445986.500000,29.6633,-93.4786,0037,-1.12,-2.78,3.0000,202.0000
1984-10-13 00:30:00 UTC,2445986.520833,29.6633,-93.4786,0037,-1.87,-4.64,5.0000,202.0000
1984-10-13 01:00:00 UTC,2445986.541667,29.6633,-93.4786,0037,-8.95,-0.94,9.0000,264.0000
1984-10-13 01:30:00 UTC,2445986.562500,29.6633,-93.4786,0037,-15.04,5.47,16.0000,290.0000
1984-10-13 02:00:00 UTC,2445986.583333,29.6633,-93.4786,0037,-12.79,5.69,14.0000,294.0000
1984-10-13 02:30:00 UTC,2445986.604167,29.6633,-93.4786,0037,-4.87,1.12,5.0000,283.0000
1984-10-13 03:00:00 UTC,2445986.625000,29.6633,-93.4786,0037,-1.83,0.81,2.0000,294.0000
1984-10-13 03:30:00 UTC,2445986.645833,29.6633,-93.4786,0037,-3.01,3.99,5.0000,323.0000
1984-10-13 04:00:00 UTC,2445986.666667,29.6633,-93.4786,0037,-4.21,5.59,7.0000,323.0000
1984-10-13 04:30:00 UTC,2445986.687500,29.6633,-93.4786,0037,-6.69,6.02,9.0000,312.0000
1984-10-13 05:00:00 UTC,2445986.708333,29.6633,-93.4786,0037,-10.06,6.54,12.0000,303.0000
1984-10-13 05:30:00 UTC,2445986.729167,29.6633,-93.4786,0037,-14.38,7.01,16.0000,296.0000
1984-10-13 06:00:00 UTC,2445986.750000,29.6633,-93.4786,0037,-17.62,7.12,19.0000,292.0000
1984-10-13 06:30:00 UTC,2445986.770833,29.6633,-93.4786,0037,-19.18,8.54,21.0000,294.0000
1984-10-13 07:00:00 UTC,2445986.791667,29.6633,-93.4786,0037,-18.19,10.50,21.0000,300.0000
1984-10-13 07:30:00 UTC,2445986.812500,29.6633,-93.4786,0037,-13.58,11.81,18.0000,311.0000
1984-10-13 08:00:00 UTC,2445986.833333,29.6633,-93.4786,0037,-8.82,12.14,15.0000,324.0000
1984-10-13 08:30:00 UTC,2445986.854167,29.6633,-93.4786,0037,-6.30,11.37,13.0000,331.0000
1984-10-13 09:00:00 UTC,2445986.875000,29.6633,-93.4786,0037,-6.89,11.02,13.0000,328.0000
1984-10-13 09:30:00 UTC,2445986.895833,29.6633,-93.4786,0037,-7.27,10.78,13.0000,326.0000
1984-10-13 10:00:00 UTC,2445986.916667,29.6633,-93.4786,0037,-4.65,9.97,11.0000,335.0000
1984-10-13 10:30:00 UTC,2445986.937500,29.6633,-93.4786,0037,-2.08,9.78,10.0000,348.0000
1984-10-13 11:00:00 UTC,2445986.958333,29.6633,-93.4786,0037,0.42,7.99,8.0000,3.0000
1984-10-13 11:30:00 UTC,2445986.979167,29.6633,-93.4786,0037,3.53,4.85,6.0000,36.0000
1984-10-13 12:00:00 UTC,2445987.000000,29.6633,-93.4786,0037,5.30,2.82,6.0000,62.0000
1984-10-13 12:30:00 UTC,2445987.020833,29.6633,-93.4786,0037,5.52,2.34,6.0000,67.0000
1984-10-13 13:00:00 UTC,2445987.041667,29.6633,-93.4786,0037,6.69,2.05,7.0000,73.0000
1984-10-13 13:30:00 UTC,2445987.062500,29.6633,-93.4786,0037,6.82,1.57,7.0000,77.0000
1984-10-13 14:00:00 UTC,2445987.083333,29.6633,-93.4786,0037,6.79,1.69,7.0000,76.0000
1984-10-13 14:30:00 UTC,2445987.104167,29.6633,-93.4786,0037,6.79,1.69,7.0000,76.0000
1984-10-13 15:00:00 UTC,2445987.125000,29.6633,-93.4786,0037,5.89,1.14,6.0000,79.0000
1984-10-13 15:30:00 UTC,2445987.145833,29.6633,-93.4786,0037,6.73,1.93,7.0000,74.0000
1984-10-13 16:00:00 UTC,2445987.166667,29.6633,-93.4786,0037,7.52,2.74,8.0000,70.0000
1984-10-13 16:30:00 UTC,2445987.187500,29.6633,-93.4786,0037,7.56,2.60,8.0000,71.0000
1984-10-13 17:00:00 UTC,2445987.208333,29.6633,-93.4786,0037,7.31,3.25,8.0000,66.0000
1984-10-13 17:30:00 UTC,2445987.229167,29.6633,-93.4786,0037,6.30,4.93,8.0000,52.0000
1984-10-13 18:00:00 UTC,2445987.250000,29.6633,-93.4786,0037,5.14,6.13,8.0000,40.0000
1984-10-13 18:30:00 UTC,2445987.270833,29.6633,-93.4786,0037,5.16,7.37,9.0000,35.0000
1984-10-13 19:00:00 UTC,2445987.291667,29.6633,-93.4786,0037,5.29,7.28,9.0000,36.0000
1984-10-13 19:30:00 UTC,2445987.312500,29.6633,-93.4786,0037,5.29,7.28,9.0000,36.0000
1984-10-13 20:00:00 UTC,2445987.333333,29.6633,-93.4786,0037,4.36,7.87,9.0000,29.0000
1984-10-13 20:30:00 UTC,2445987.354167,29.6633,-93.4786,0037,3.00,7.42,8.0000,22.0000
1984-10-13 21:00:00 UTC,2445987.375000,29.6633,-93.4786,0037,1.95,5.67,6.0000,19.0000
1984-10-13 21:30:00 UTC,2445987.395833,29.6633,-93.4786,0037,-0.07,4.00,4.0000,359.0000
1984-10-13 22:00:00 UTC,2445987.416667,29.6633,-93.4786,0037,-4.85,3.53,6.0000,306.0000
1984-10-13 22:30:00 UTC,2445987.437500,29.6633,-93.4786,0037,-9.70,2.42,10.0000,284.0000
1984-10-13 23:00:00 UTC,2445987.458333,29.6633,-93.4786,0037,-12.67,2.92,13.0000,283.0000
1984-10-13 23:30:00 UTC,2445987.479167,29.6633,-93.4786,0037,-11.85,1.88,12.0000,279.0000
1984-10-14 00:00:00 UTC,2445987.500000,29.6633,-93.4786,0037,-10.00,-0.00,10.0000,270.0000
1984-10-14 00:30:00 UTC,2445987.520833,29.6633,-93.4786,0037,-5.96,-0.73,6.0000,263.0000
1984-10-14 01:00:00 UTC,2445987.541667,29.6633,-93.4786,0037,-1.55,-2.57,3.0000,211.0000
1984-10-14 01:30:00 UTC,2445987.562500,29.6633,-93.4786,0037,0.63,-5.97,6.0000,174.0000
1984-10-14 02:00:00 UTC,2445987.583333,29.6633,-93.4786,0037,0.56,-7.98,8.0000,176.0000
1984-10-14 02:30:00 UTC,2445987.604167,29.6633,-93.4786,0037,0.00,-8.00,8.0000,180.0000
1984-10-14 03:00:00 UTC,2445987.625000,29.6633,-93.4786,0037,-1.25,-7.90,8.0000,189.0000
1984-10-14 03:30:00 UTC,2445987.645833,29.6633,-93.4786,0037,-2.48,-8.65,9.0000,196.0000
1984-10-14 04:00:00 UTC,2445987.666667,29.6633,-93.4786,0037,-2.93,-8.51,9.0000,199.0000
1984-10-14 04:30:00 UTC,2445987.687500,29.6633,-93.4786,0037,-3.52,-8.28,9.0000,203.0000
1984-10-14 05:00:00 UTC,2445987.708333,29.6633,-93.4786,0037,-2.62,-6.49,7.0000,202.0000
1984-10-14 05:30:00 UTC,2445987.729167,29.6633,-93.4786,0037,-2.21,-7.69,8.0000,196.0000
1984-10-14 06:00:00 UTC,2445987.750000,29.6633,-93.4786,0037,-6.02,-6.69,9.0000,222.0000
1984-10-14 06:30:00 UTC,2445987.770833,29.6633,-93.4786,0037,-14.82,-2.35,15.0000,261.0000
1984-10-14 07:00:00 UTC,2445987.791667,29.6633,-93.4786,0037,-23.70,3.75,24.0000,279.0000
1984-10-14 07:30:00 UTC,2445987.812500,29.6633,-93.4786,0037,-30.08,7.50,31.0000,284.0000
1984-10-14 08:00:00 UTC,2445987.833333,29.6633,-93.4786,0037,-34.10,7.87,35.0000,283.0000
1984-10-14 08:30:00 UTC,2445987.854167,29.6633,-93.4786,0037,-36.05,8.32,37.0000,283.0000
1984-10-14 09:00:00 UTC,2445987.875000,29.6633,-93.4786,0037,-37.03,8.55,38.0000,283.0000
1984-10-14 09:30:00 UTC,2445987.895833,29.6633,-93.4786,0037,-35.65,5.01,36.0000,278.0000
1984-10-14 10:00:00 UTC,2445987.916667,29.6633,-93.4786,0037,-31.88,2.79,32.0000,275.0000
1984-10-14 10:30:00 UTC,2445987.937500,29.6633,-93.4786,0037,-26.96,1.41,27.0000,273.0000
1984-10-14 11:00:00 UTC,2445987.958333,29.6633,-93.4786,0037,-19.97,1.05,20.0000,273.0000
1984-10-14 11:30:00 UTC,2445987.979167,29.6633,-93.4786,0037,-15.98,0.84,16.0000,273.0000
1984-10-14 12:00:00 UTC,2445988.000000,29.6633,-93.4786,0037,-17.73,-3.13,18.0000,260.0000
1984-10-14 12:30:00 UTC,2445988.020833,29.6633,-93.4786,0037,-18.17,-5.56,19.0000,253.0000
1984-10-14 13:00:00 UTC,2445988.041667,29.6633,-93.4786,0037,-14.77,-2.60,15.0000,260.0000
1984-10-14 13:30:00 UTC,2445988.062500,29.6633,-93.4786,0037,-15.71,3.05,16.0000,281.0000
1984-10-14 14:00:00 UTC,2445988.083333,29.6633,-93.4786,0037,-16.63,3.53,17.0000,282.0000
1984-10-14 14:30:00 UTC,2445988.104167,29.6633,-93.4786,0037,-13.83,-2.19,14.0000,261.0000
1984-10-14 15:00:00 UTC,2445988.125000,29.6633,-93.4786,0037,-23.94,-1.67,24.0000,266.0000
1984-10-14 15:30:00 UTC,2445988.145833,29.6633,-93.4786,0037,-39.78,4.18,40.0000,276.0000
1984-10-14 16:00:00 UTC,2445988.166667,29.6633,-93.4786,0037,-45.43,7.20,46.0000,279.0000
1984-10-14 16:30:00 UTC,2445988.187500,29.6633,-93.4786,0037,-43.46,6.88,44.0000,279.0000
1984-10-14 17:00:00 UTC,2445988.208333,29.6633,-93.4786,0037,-39.13,8.32,40.0000,282.0000
1984-10-14 17:30:00 UTC,2445988.229167,29.6633,-93.4786,0037,-37.49,10.75,39.0000,286.0000
1984-10-14 18:00:00 UTC,2445988.250000,29.6633,-93.4786,0037,-32.63,15.21,36.0000,295.0000
1984-10-14 18:30:00 UTC,2445988.270833,29.6633,-93.4786,0037,-23.31,18.88,30.0000,309.0000
1984-10-14 19:00:00 UTC,2445988.291667,29.6633,-93.4786,0037,-17.34,13.54,22.0000,308.0000
1984-10-14 19:30:00 UTC,2445988.312500,29.6633,-93.4786,0037,-22.96,12.21,26.0000,298.0000
1984-10-14 20:00:00 UTC,2445988.333333,29.6633,-93.4786,0037,-30.00,18.03,35.0000,301.0000
1984-10-14 20:30:00 UTC,2445988.354167,29.6633,-93.4786,0037,-29.49,20.65,36.0000,305.0000
1984-10-14 21:00:00 UTC,2445988.375000,29.6633,-93.4786,0037,-19.45,20.14,28.0000,316.0000
1984-10-14 21:30:00 UTC,2445988.395833,29.6633,-93.4786,0037,-5.38,14.00,15.0000,339.0000
1984-10-14 22:00:00 UTC,2445988.416667,29.6633,-93.4786,0037,0.91,-0.42,1.0000,115.0000
1984-10-14 22:30:00 UTC,2445988.437500,29.6633,-93.4786,0037,-8.00,-10.24,13.0000,218.0000
1984-10-14 23:00:00 UTC,2445988.458333,29.6633,-93.4786,0037,-22.83,-7.42,24.0000,252.0000
1984-10-14 23:30:00 UTC,2445988.479167,29.6633,-93.4786,0037,-30.98,1.08,31.0000,272.0000
1984-10-15 00:00:00 UTC,2445988.500000,29.6633,-93.4786,0037,-30.76,8.82,32.0000,286.0000
1984-10-15 00:30:00 UTC,2445988.520833,29.6633,-93.4786,0037,-22.64,14.71,27.0000,303.0000
1984-10-15 01:00:00 UTC,2445988.541667,29.6633,-93.4786,0037,-16.54,15.98,23.0000,314.0000
1984-10-15 01:30:00 UTC,2445988.562500,29.6633,-93.4786,0037,-14.97,11.70,19.0000,308.0000
1984-10-15 02:00:00 UTC,2445988.583333,29.6633,-93.4786,0037,-15.97,5.81,17.0000,290.0000
1984-10-15 02:30:00 UTC,2445988.604167,29.6633,-93.4786,0037,-17.78,2.82,18.0000,279.0000
1984-10-15 03:00:00 UTC,2445988.625000,29.6633,-93.4786,0037,-17.82,2.51,18.0000,278.0000
1984-10-15 03:30:00 UTC,2445988.645833,29.6633,-93.4786,0037,-16.79,2.66,17.0000,279.0000
1984-10-15 04:00:00 UTC,2445988.666667,29.6633,-93.4786,0037,-17.93,1.57,18.0000,275.0000
1984-10-15 04:30:00 UTC,2445988.687500,29.6633,-93.4786,0037,-20.00,0.35,20.0000,271.0000
1984-10-15 05:00:00 UTC,2445988.708333,29.6633,-93.4786,0037,-19.95,1.40,20.0000,274.0000
1984-10-15 05:30:00 UTC,2445988.729167,29.6633,-93.4786,0037,-20.68,3.65,21.0000,280.0000
1984-10-15 06:00:00 UTC,2445988.750000,29.6633,-93.4786,0037,-20.54,4.37,21.0000,282.0000
1984-10-15 06:30:00 UTC,2445988.770833,29.6633,-93.4786,0037,-21.25,5.69,22.0000,285.0000
1984-10-15 07:00:00 UTC,2445988.791667,29.6633,-93.4786,0037,-22.83,7.42,24.0000,288.0000
1984-10-15 07:30:00 UTC,2445988.812500,29.6633,-93.4786,0037,-23.49,8.55,25.0000,290.0000
1984-10-15 08:00:00 UTC,2445988.833333,29.6633,-93.4786,0037,-22.09,9.38,24.0000,293.0000
1984-10-15 08:30:00 UTC,2445988.854167,29.6633,-93.4786,0037,-22.41,8.60,24.0000,291.0000
1984-10-15 09:00:00 UTC,2445988.875000,29.6633,-93.4786,0037,-22.69,7.81,24.0000,289.0000
1984-10-15 09:30:00 UTC,2445988.895833,29.6633,-93.4786,0037,-21.17,8.99,23.0000,293.0000
1984-10-15 10:00:00 UTC,2445988.916667,29.6633,-93.4786,0037,-18.13,8.45,20.0000,295.0000
1984-10-15 10:30:00 UTC,2445988.937500,29.6633,-93.4786,0037,-14.94,5.73,16.0000,291.0000
1984-10-15 11:00:00 UTC,2445988.958333,29.6633,-93.4786,0037,-13.52,3.62,14.0000,285.0000
1984-10-15 11:30:00 UTC,2445988.979167,29.6633,-93.4786,0037,-12.72,2.70,13.0000,282.0000
1984-10-15 12:00:00 UTC,2445989.000000,29.6633,-93.4786,0037,-8.80,1.87,9.0000,282.0000
1984-10-15 12:30:00 UTC,2445989.020833,29.6633,-93.4786,0037,-2.93,-0.62,3.0000,258.0000
1984-10-15 13:00:00 UTC,2445989.041667,29.6633,-93.4786,0037,-1.20,-1.60,2.0000,217.0000
1984-10-15 13:30:00 UTC,2445989.062500,29.6633,-93.4786,0037,-2.95,-0.52,3.0000,260.0000
1984-10-15 14:00:00 UTC,2445989.083333,29.6633,-93.4786,0037,-3.90,-0.90,4.0000,257.0000
1984-10-15 14:30:00 UTC,2445989.104167,29.6633,-93.4786,0037,-3.53,-1.88,4.0000,242.0000
1984-10-15 15:00:00 UTC,2445989.125000,29.6633,-93.4786,0037,-2.94,-0.57,3.0000,259.0000
1984-10-15 15:30:00 UTC,2445989.145833,29.6633,-93.4786,0037,-3.95,0.63,4.0000,279.0000
1984-10-15 16:00:00 UTC,2445989.166667,29.6633,-93.4786,0037,-4.91,0.95,5.0000,281.0000
1984-10-15 16:30:00 UTC,2445989.187500,29.6633,-93.4786,0037,-6.79,1.69,7.0000,284.0000
1984-10-15 17:00:00 UTC,2445989.208333,29.6633,-93.4786,0037,-7.36,3.13,8.0000,293.0000
1984-10-15 17:30:00 UTC,2445989.229167,29.6633,-93.4786,0037,-4.09,4.39,6.0000,317.0000
1984-10-15 18:00:00 UTC,2445989.250000,29.6633,-93.4786,0037,0.84,5.94,6.0000,8.0000
1984-10-15 18:30:00 UTC,2445989.270833,29.6633,-93.4786,0037,4.47,6.63,8.0000,34.0000
1984-10-15 19:00:00 UTC,2445989.291667,29.6633,-93.4786,0037,5.56,5.75,8.0000,44.0000
1984-10-15 19:30:00 UTC,2445989.312500,29.6633,-93.4786,0037,5.56,5.75,8.0000,44.0000
1984-10-15 20:00:00 UTC,2445989.333333,29.6633,-93.4786,0037,4.47,6.63,8.0000,34.0000
1984-10-15 20:30:00 UTC,2445989.354167,29.6633,-93.4786,0037,2.15,5.60,6.0000,21.0000
1984-10-15 21:00:00 UTC,2445989.375000,29.6633,-93.4786,0037,1.55,5.80,6.0000,15.0000
1984-10-15 21:30:00 UTC,2445989.395833,29.6633,-93.4786,0037,2.63,5.39,6.0000,26.0000
1984-10-15 22:00:00 UTC,2445989.416667,29.6633,-93.4786,0037,4.95,4.95,7.0000,45.0000
1984-10-15 22:30:00 UTC,2445989.437500,29.6633,-93.4786,0037,4.97,3.36,6.0000,56.0000
1984-10-15 23:00:00 UTC,2445989.458333,29.6633,-93.4786,0037,3.53,1.88,4.0000,62.0000
1984-10-15 23:30:00 UTC,2445989.479167,29.6633,-93.4786,0037,1.95,0.45,2.0000,77.0000
1984-10-16 00:00:00 UTC,2445989.500000,29.6633,-93.4786,0037,2.00,-0.07,2.0000,92.0000
1984-10-16 00:30:00 UTC,2445989.520833,29.6633,-93.4786,0037,2.16,-2.08,3.0000,134.0000
1984-10-16 01:00:00 UTC,2445989.541667,29.6633,-93.4786,0037,0.87,-4.92,5.0000,170.0000
1984-10-16 01:30:00 UTC,2445989.562500,29.6633,-93.4786,0037,-1.81,-6.76,7.0000,195.0000
1984-10-16 02:00:00 UTC,2445989.583333,29.6633,-93.4786,0037,-5.15,-8.57,10.0000,211.0000
1984-10-16 02:30:00 UTC,2445989.604167,29.6633,-93.4786,0037,-8.23,-11.33,14.0000,216.0000
1984-10-16 03:00:00 UTC,2445989.625000,29.6633,-93.4786,0037,-10.70,-13.21,17.0000,219.0000
1984-10-16 03:30:00 UTC,2445989.645833,29.6633,-93.4786,0037,-13.38,-14.86,20.0000,222.0000
1984-10-16 04:00:00 UTC,2445989.666667,29.6633,-93.4786,0037,-14.72,-16.35,22.0000,222.0000
1984-10-16 04:30:00 UTC,2445989.687500,29.6633,-93.4786,0037,-15.69,-16.82,23.0000,223.0000
1984-10-16 05:00:00 UTC,2445989.708333,29.6633,-93.4786,0037,-16.97,-16.97,24.0000,225.0000
1984-10-16 05:30:00 UTC,2445989.729167,29.6633,-93.4786,0037,-17.68,-17.68,25.0000,225.0000
1984-10-16 06:00:00 UTC,2445989.750000,29.6633,-93.4786,0037,-19.02,-17.73,26.0000,227.0000
1984-10-16 06:30:00 UTC,2445989.770833,29.6633,-93.4786,0037,-21.30,-14.91,26.0000,235.0000
1984-10-16 07:00:00 UTC,2445989.791667,29.6633,-93.4786,0037,-23.01,-9.77,25.0000,247.0000
1984-10-16 07:30:00 UTC,2445989.812500,29.6633,-93.4786,0037,-23.07,-6.62,24.0000,254.0000
1984-10-16 08:00:00 UTC,2445989.833333,29.6633,-93.4786,0037,-23.38,-5.40,24.0000,257.0000
1984-10-16 08:30:00 UTC,2445989.854167,29.6633,-93.4786,0037,-24.76,-3.48,25.0000,262.0000
1984-10-16 09:00:00 UTC,2445989.875000,29.6633,-93.4786,0037,-21.95,-1.53,22.0000,266.0000
1984-10-16 09:30:00 UTC,2445989.895833,29.6633,-93.4786,0037,-19.99,0.70,20.0000,272.0000
1984-10-16 10:00:00 UTC,2445989.916667,29.6633,-93.4786,0037,-19.63,3.82,20.0000,281.0000
1984-10-16 10:30:00 UTC,2445989.937500,29.6633,-93.4786,0037,-17.74,6.81,19.0000,291.0000
1984-10-16 11:00:00 UTC,2445989.958333,29.6633,-93.4786,0037,-12.78,9.63,16.0000,307.0000
1984-10-16 11:30:00 UTC,2445989.979167,29.6633,-93.4786,0037,-6.70,11.14,13.0000,329.0000
1984-10-16 12:00:00 UTC,2445990.000000,29.6633,-93.4786,0037,-3.91,11.35,12.0000,341.0000
1984-10-16 12:30:00 UTC,2445990.020833,29.6633,-93.4786,0037,-3.71,11.41,12.0000,342.0000
1984-10-16 13:00:00 UTC,2445990.041667,29.6633,-93.4786,0037,-2.25,9.74,10.0000,347.0000
1984-10-16 13:30:00 UTC,2445990.062500,29.6633,-93.4786,0037,0.84,5.94,6.0000,8.0000
1984-10-16 14:00:00 UTC,2445990.083333,29.6633,-93.4786,0037,3.28,3.77,5.0000,41.0000
1984-10-16 14:30:00 UTC,2445990.104167,29.6633,-93.4786,0037,2.74,1.22,3.0000,66.0000
1984-10-16 15:00:00 UTC,2445990.125000,29.6633,-93.4786,0037,1.88,-0.68,2.0000,110.0000
1984-10-16 15:30:00 UTC,2445990.145833,29.6633,-93.4786,0037,2.76,-1.17,3.0000,113.0000
1984-10-16 16:00:00 UTC,2445990.166667,29.6633,-93.4786,0037,4.83,-1.29,5.0000,105.0000
1984-10-16 16:30:00 UTC,2445990.187500,29.6633,-93.4786,0037,6.49,-2.62,7.0000,112.0000
1984-10-16 17:00:00 UTC,2445990.208333,29.6633,-93.4786,0037,6.93,-4.00,8.0000,120.0000
1984-10-16 17:30:00 UTC,2445990.229167,29.6633,-93.4786,0037,6.79,-5.90,9.0000,131.0000
1984-10-16 18:00:00 UTC,2445990.250000,29.6633,-93.4786,0037,3.13,-7.36,8.0000,157.0000
1984-10-16 18:30:00 UTC,2445990.270833,29.6633,-93.4786,0037,-2.34,-7.65,8.0000,197.0000
1984-10-16 19:00:00 UTC,2445990.291667,29.6633,-93.4786,0037,-6.99,-5.66,9.0000,231.0000
1984-10-16 19:30:00 UTC,2445990.312500,29.6633,-93.4786,0037,-13.86,-1.95,14.0000,262.0000
1984-10-16 20:00:00 UTC,2445990.333333,29.6633,-93.4786,0037,-22.78,3.20,23.0000,278.0000
1984-10-16 20:30:00 UTC,2445990.354167,29.6633,-93.4786,0037,-27.17,6.77,28.0000,284.0000
1984-10-16 21:00:00 UTC,2445990.375000,29.6633,-93.4786,0037,-27.05,7.25,28.0000,285.0000
1984-10-16 21:30:00 UTC,2445990.395833,29.6633,-93.4786,0037,-28.37,6.03,29.0000,282.0000
1984-10-16 22:00:00 UTC,2445990.416667,29.6633,-93.4786,0037,-30.62,4.85,31.0000,279.0000
1984-10-16 22:30:00 UTC,2445990.437500,29.6633,-93.4786,0037,-30.43,5.91,31.0000,281.0000
1984-10-16 23:00:00 UTC,2445990.458333,29.6633,-93.4786,0037,-28.37,9.77,30.0000,289.0000
1984-10-16 23:30:00 UTC,2445990.479167,29.6633,-93.4786,0037,-24.72,13.15,28.0000,298.0000
1984-10-17 00:00:00 UTC,2445990.500000,29.6633,-93.4786,0037,-22.29,13.39,26.0000,301.0000
1984-10-17 00:30:00 UTC,2445990.520833,29.6633,-93.4786,0037,-22.07,11.74,25.0000,298.0000
1984-10-17 01:00:00 UTC,2445990.541667,29.6633,-93.4786,0037,-22.07,11.74,25.0000,298.0000
1984-10-17 01:30:00 UTC,2445990.562500,29.6633,-93.4786,0037,-21.87,12.12,25.0000,299.0000
1984-10-17 02:00:00 UTC,2445990.583333,29.6633,-93.4786,0037,-20.12,11.15,23.0000,299.0000
1984-10-17 02:30:00 UTC,2445990.604167,29.6633,-93.4786,0037,-19.05,11.00,22.0000,300.0000
1984-10-17 03:00:00 UTC,2445990.625000,29.6633,-93.4786,0037,-18.37,10.18,21.0000,299.0000
1984-10-17 03:30:00 UTC,2445990.645833,29.6633,-93.4786,0037,-18.87,9.21,21.0000,296.0000
1984-10-17 04:00:00 UTC,2445990.666667,29.6633,-93.4786,0037,-18.27,8.13,20.0000,294.0000
1984-10-17 04:30:00 UTC,2445990.687500,29.6633,-93.4786,0037,-17.85,6.50,19.0000,290.0000
1984-10-17 05:00:00 UTC,2445990.708333,29.6633,-93.4786,0037,-16.74,2.95,17.0000,280.0000
1984-10-17 05:30:00 UTC,2445990.729167,29.6633,-93.4786,0037,-16.00,-0.00,16.0000,270.0000
1984-10-17 06:00:00 UTC,2445990.750000,29.6633,-93.4786,0037,-16.99,-0.59,17.0000,268.0000
1984-10-17 06:30:00 UTC,2445990.770833,29.6633,-93.4786,0037,-17.99,0.63,18.0000,272.0000
1984-10-17 07:00:00 UTC,2445990.791667,29.6633,-93.4786,0037,-18.77,2.97,19.0000,279.0000
1984-10-17 07:30:00 UTC,2445990.812500,29.6633,-93.4786,0037,-17.36,7.73,19.0000,294.0000
1984-10-17 08:00:00 UTC,2445990.833333,29.6633,-93.4786,0037,-14.77,11.96,19.0000,309.0000
1984-10-17 08:30:00 UTC,2445990.854167,29.6633,-93.4786,0037,-18.11,15.75,24.0000,311.0000